SL-16 R/B (17590 NORAD) Tracking and Keplerian Element Data

This shows tracking and keplerian element data for the satellite.

Feedback or suggestion? Click here.




ElementValue
Catalog17590
NameSL-16 R/B
Epoch Orbit95882
Epoch Day34.4563409
Epoch Year2025
RAAN37.719
Inclination71.0029
Eccentricity0.000524
Argument of Perigee343.4874
Mean Anonmoly16.6078
Mean Motion14.17082273
Decay Rate3.64E-06
L11 17590U 87027B 25034.45634090 .00000364 00000+0 20438-3 0 9993
L22 17590 71.0029 37.7190 0005240 343.4874 16.6078 14.17082273958829



Live tracking and technical data element details for SL-16 R/B (NORAD 17590). SL-16 R/B can be tracked NOW for your location showing map with azimuth and elevation plus other details from your city location.







IsCatalogInMostPopularTable: catalog: 17590, numindb: 388
Update: records affected: 1



GetName: 17590 SL-16 R/B

Hit Count: updated at: Thu, 22 May 2025 03:24:16 GMT